WetterOnline ( https://www.wetteronline.de )

Wetter aktuell Francorchamps

Aktuelles Wetter: Elsenborn (570m)

6-stündlich | Neueste Meldungen
Ortszeit Temperatur Wetter
Do, 26.05. 14:00 15.8° C leicht bewölkt
Do, 26.05. 8:00 10.3° C bedeckt
Do, 26.05. 2:00 9.8° C bedeckt
Mi, 25.05. 20:00 13.3° C bedeckt
Mi, 25.05. 14:00 14.2° C wolkig
Mi, 25.05. 8:00 7.6° C leicht bewölkt
Mi, 25.05. 2:00 5.0° C fast wolkenlos
Di, 24.05. 20:00 8.3° C bedeckt
Ortszeit Temperatur Wetter
Do, 26.05. 19:00 15.8° C bewölkt
Do, 26.05. 18:00 16.1° C bewölkt
Do, 26.05. 17:00 17.3° C bewölkt
Do, 26.05. 16:00 16.8° C wolkig
Do, 26.05. 15:00 16.6° C wolkig
Do, 26.05. 14:00 15.8° C leicht bewölkt
Ortszeit Relative Feuchte Sichtweite
Do, 26.05. 14:00 61% 20 km
Do, 26.05. 8:00 92% 19 km
Do, 26.05. 2:00 92% 20 km
Mi, 25.05. 20:00 57% 20 km
Mi, 25.05. 14:00 52% 20 km
Mi, 25.05. 8:00 95% 20 km
Mi, 25.05. 2:00 98% 12 km
Di, 24.05. 20:00 92% 20 km
Ortszeit Relative Feuchte Sichtweite
Do, 26.05. 19:00 64% 20 km
Do, 26.05. 18:00 60% 20 km
Do, 26.05. 17:00 56% 20 km
Do, 26.05. 16:00 56% 20 km
Do, 26.05. 15:00 57% 20 km
Do, 26.05. 14:00 61% 20 km
Ortszeit Niederschlagsmenge Niederschlagsart
Do, 26.05. 14:00 0.0 l/m2 in 6 Std. -
Do, 26.05. 8:00 0.4 l/m2 in 12 Std. Regen
Do, 26.05. 2:00 0.1 l/m2 in 6 Std. Regen
Mi, 25.05. 20:00 0.0 l/m2 in 12 Std. Regen
Mi, 25.05. 14:00 0.0 l/m2 in 6 Std. -
Mi, 25.05. 8:00 0.0 l/m2 in 12 Std. -
Mi, 25.05. 2:00 0.0 l/m2 in 6 Std. -
Di, 24.05. 20:00 6 l/m2 in 12 Std. Regen
Ortszeit Niederschlagsmenge Niederschlagsart
Do, 26.05. 19:00 keine Meldung -
Do, 26.05. 18:00 keine Meldung -
Do, 26.05. 17:00 keine Meldung -
Do, 26.05. 16:00 keine Meldung -
Do, 26.05. 15:00 keine Meldung -
Do, 26.05. 14:00 keine Meldung -
Ortszeit Stärke Spitze Richtung
km/h Bft. km/h Grad Sektor
Do, 26.05. 14:00 14 3 32 250° W
Do, 26.05. 8:00 11 2 29 260° W
Do, 26.05. 2:00 11 2 36 230° SW
Mi, 25.05. 20:00 14 3 36 260° W
Mi, 25.05. 14:00 14 3 36 260° W
Mi, 25.05. 8:00 7 2 14 250° W
Mi, 25.05. 2:00 4 1 11 uml. uml.
Di, 24.05. 20:00 4 1 43 uml. uml.
Ortszeit Stärke Spitze Richtung
km/h Bft. km/h Grad Sektor
Do, 26.05. 19:00 14 3 32 260° W
Do, 26.05. 18:00 18 3 29 250° W
Do, 26.05. 17:00 18 3 36 260° W
Do, 26.05. 16:00 14 3 36 240° SW
Do, 26.05. 15:00 14 3 32 250° W
Do, 26.05. 14:00 14 3 32 250° W
Ortszeit Untergrenze Bedeckung Gattung
total tief tief mittel hoch
Do, 26.05. 14:00 1020 m - 2/8 - - -
Do, 26.05. 8:00 180 m - 8/8 - - -
Do, 26.05. 2:00 420 m - 8/8 - - -
Mi, 25.05. 20:00 1410 m - 8/8 - - -
Mi, 25.05. 14:00 1410 m - 6/8 - - -
Mi, 25.05. 8:00 120 m - 2/8 - - -
Mi, 25.05. 2:00 60 m - 1/8 - - -
Di, 24.05. 20:00 1200 m - 8/8 - - -
Ortszeit Bedeckungsgrad in Achtel und Wolkenuntergrenze
Do, 26.05. 19:00 7(960m)
Do, 26.05. 18:00 7(1080m)
Do, 26.05. 17:00 7(1140m)
Do, 26.05. 16:00 6(1110m)
Do, 26.05. 15:00 5(1050m)
Do, 26.05. 14:00 2(1020m)
Ortszeit Luftdruck NN (hPa) Tendenz (hPa in 3 Std.)
Do, 26.05. 14:00 1023 + 0,8
Do, 26.05. 8:00 1021 + 1,1
Do, 26.05. 2:00 1020 + 0,5
Mi, 25.05. 20:00 1018 + 1,0
Mi, 25.05. 14:00 1016 + 0,3
Mi, 25.05. 8:00 1017 + 1,3
Mi, 25.05. 2:00 1015 + 1,1
Di, 24.05. 20:00 1011 + 1,1
Ortszeit Luftdruck NN (hPa) Tendenz (hPa in 3 Std.)
Do, 26.05. 19:00 1022 - 0,2
Do, 26.05. 18:00 1022 - 0,5
Do, 26.05. 17:00 1022 - 0,8
Do, 26.05. 16:00 1022 - 0,6
Do, 26.05. 15:00 1022 0,0
Do, 26.05. 14:00 1023 + 0,8
Ortszeit Schneehöhe (cm)
Do, 26.05. 14:00 -
Do, 26.05. 8:00 -
Do, 26.05. 2:00 -
Mi, 25.05. 20:00 -
Mi, 25.05. 14:00 -
Mi, 25.05. 8:00 -
Mi, 25.05. 2:00 -
Di, 24.05. 20:00 -
Ortszeit Schneehöhe (cm)
Do, 26.05. 19:00 -
Do, 26.05. 18:00 -
Do, 26.05. 17:00 -
Do, 26.05. 16:00 -
Do, 26.05. 15:00 -
Do, 26.05. 14:00 -
Link zu dieser Seite / Seite empfehlen

Das Wetter in ...